Tracking 21076 objects as of 10-Aug-2020
HD Live streaming from Space Station
objects crossing your sky now
Track the most recent launched group of Starlink satellites

SL-8 R/B

Track SL-8 R/B now!
10-day predictions


NORAD ID: 12092
Int'l Code: 1980-099B
Perigee: 958.9 km
Apogee: 1,004.6 km
Inclination: 82.9 °
Period: 104.6 minutes
Semi major axis: 7352 km
RCS: 4.7538 m2 (large)
Launch date: December 10, 1980
Source: Commonwealth of Independent States (former USSR) (CIS)
Launch site: PLESETSK MISSILE AND SPACE COMPLEX (PKMTR)

Note: This is a ROCKET BODY
aabbcc
Your satellite tracking list
Your tracking list is empty




NASA's NSSDC Master Catalog

Two Line Element Set (TLE):
1 12092U 80099B   20223.31008042  .00000055  00000-0  39930-4 0  9995
2 12092  82.9413 108.9872 0031096 123.5779  14.9236 13.76987737992565
Source of the keplerian elements: AFSPC